When you browse on this site, cookies collect data to enhance your experience and personalize the content and advertising you see.
Visit our Privacy Policy to learn more. By continuing to use the site, you agree to this use of cookies and data.
  • en Suisse
  • Liste des pays
  • À 7 jours
  • Température de l'eau
  • Carte météo
  • Widgets météo
  • user-avatar
    Se connecter

    Météo par heure à Ajova-Siti

    Ce jour, 2 Juin, Mardi

    Heure Température Précipitation Vent Pression Humidité
    00:00 +22°C° 0 mm 6 m/s 740 mmHg 76%
    01:00 +22°C° 0 mm 5 m/s 740 mmHg 80%
    02:00 +21°C° 0 mm 5 m/s 740 mmHg 84%
    03:00 +20°C° 0 mm 5 m/s 739 mmHg 88%
    04:00 +21°C° 0 mm 4 m/s 740 mmHg 89%
    05:00 +21°C° 0 mm 4 m/s 740 mmHg 90%
    06:00 +21°C° 0 mm 4 m/s 740 mmHg 91%
    07:00 +22°C° 0 mm 5 m/s 740 mmHg 87%
    08:00 +25°C° 0 mm 5 m/s 740 mmHg 84%
    09:00 +26°C° 0 mm 5 m/s 740 mmHg 81%
    10:00 +27°C° 0 mm 5 m/s 740 mmHg 79%
    11:00 +28°C° 0 mm 5 m/s 740 mmHg 77%
    12:00 +30°C° 0 mm 5 m/s 740 mmHg 75%
    13:00 +30°C° 0 mm 6 m/s 739 mmHg 74%
    14:00 +30°C° 0 mm 6 m/s 739 mmHg 74%
    15:00 +32°C° 0 mm 7 m/s 739 mmHg 74%
    16:00 +30°C° 0 mm 6 m/s 738 mmHg 77%
    17:00 +29°C° 0 mm 5 m/s 738 mmHg 80%
    18:00 +29°C° 0 mm 5 m/s 738 mmHg 83%
    19:00 +27°C° 0 mm 5 m/s 738 mmHg 86%
    20:00 +26°C° 0 mm 4 m/s 738 mmHg 90%
    21:00 +25°C° 0 mm 4 m/s 738 mmHg 93%
    22:00 +23°C° 0 mm 4 m/s 738 mmHg 94%
    23:00 +23°C° 0 mm 4 m/s 738 mmHg 94%

    Demain, 3 Juin, Mercredi

    Heure Température Précipitation Vent Pression Humidité
    00:00 +23°C° 0 mm 4 m/s 738 mmHg 94%
    01:00 +22°C° 1.5 mm 4 m/s 738 mmHg 95%
    02:00 +22°C° 1.5 mm 3 m/s 738 mmHg 96%
    03:00 +21°C° 1.5 mm 2 m/s 738 mmHg 97%
    04:00 +22°C° 1.2 mm 3 m/s 738 mmHg 97%
    05:00 +22°C° 1.2 mm 3 m/s 738 mmHg 97%
    06:00 +22°C° 1.2 mm 3 m/s 738 mmHg 96%
    07:00 +24°C° 0.1 mm 3 m/s 738 mmHg 93%
    08:00 +25°C° 0.1 mm 2 m/s 738 mmHg 89%
    09:00 +26°C° 0.1 mm 2 m/s 738 mmHg 86%
    10:00 +27°C° 0.1 mm 2 m/s 738 mmHg 83%
    11:00 +27°C° 0.1 mm 1 m/s 738 mmHg 80%
    12:00 +28°C° 0.1 mm 1 m/s 738 mmHg 77%
    13:00 +28°C° 0.5 mm 1 m/s 737 mmHg 75%
    14:00 +29°C° 0.5 mm 1 m/s 737 mmHg 73%
    15:00 +29°C° 0.5 mm 1 m/s 736 mmHg 71%
    16:00 +29°C° 1.3 mm 1 m/s 736 mmHg 75%
    17:00 +28°C° 1.3 mm 2 m/s 736 mmHg 79%
    18:00 +27°C° 1.3 mm 2 m/s 736 mmHg 83%
    19:00 +26°C° 0 mm 2 m/s 736 mmHg 84%
    20:00 +24°C° 0 mm 2 m/s 736 mmHg 86%
    21:00 +23°C° 0 mm 2 m/s 736 mmHg 87%
    22:00 +21°C° 0 mm 2 m/s 736 mmHg 87%
    23:00 +21°C° 0 mm 2 m/s 736 mmHg 86%

    Après-demain, 4 Juin, Jeudi

    Heure Température Précipitation Vent Pression Humidité
    00:00 +21°C° 0 mm 1 m/s 736 mmHg 86%
    01:00 +21°C° 0 mm 1 m/s 736 mmHg 87%
    02:00 +21°C° 0 mm 1 m/s 736 mmHg 89%
    03:00 +20°C° 0 mm 1 m/s 736 mmHg 90%
    04:00 +21°C° 0 mm 1 m/s 736 mmHg 90%
    05:00 +21°C° 0 mm 1 m/s 736 mmHg 89%
    06:00 +21°C° 0 mm 1 m/s 736 mmHg 89%
    07:00 +23°C° 0 mm 1 m/s 736 mmHg 84%
    08:00 +24°C° 0 mm 1 m/s 737 mmHg 79%
    09:00 +26°C° 0 mm 1 m/s 737 mmHg 75%
    10:00 +27°C° 0 mm 1 m/s 737 mmHg 70%
    11:00 +29°C° 0 mm 1 m/s 737 mmHg 64%
    12:00 +30°C° 0 mm 1 m/s 737 mmHg 59%
    13:00 +28°C° 0 mm 0 m/s 737 mmHg 57%
    14:00 +28°C° 0 mm 0 m/s 736 mmHg 55%
    15:00 +29°C° 0 mm 0 m/s 736 mmHg 54%
    16:00 +28°C° 0 mm 0 m/s 736 mmHg 58%
    17:00 +28°C° 0 mm 0 m/s 736 mmHg 62%
    18:00 +30°C° 0 mm 1 m/s 736 mmHg 66%
    19:00 +28°C° 0 mm 1 m/s 736 mmHg 69%
    20:00 +26°C° 0 mm 1 m/s 736 mmHg 71%
    21:00 +25°C° 0 mm 2 m/s 736 mmHg 74%
    22:00 +24°C° 0.1 mm 2 m/s 737 mmHg 76%
    23:00 +24°C° 0.1 mm 2 m/s 737 mmHg 77%

    5 Juin, Vendredi

    Heure Température Précipitation Vent Pression Humidité
    00:00 +22°C° 0.1 mm 3 m/s 737 mmHg 79%
    01:00 +23°C° 0.2 mm 2 m/s 737 mmHg 83%
    02:00 +21°C° 0.2 mm 2 m/s 737 mmHg 86%
    03:00 +21°C° 0.2 mm 2 m/s 737 mmHg 90%
    04:00 +21°C° 0.4 mm 2 m/s 737 mmHg 91%
    05:00 +21°C° 0.4 mm 2 m/s 737 mmHg 91%
    06:00 +23°C° 0.4 mm 2 m/s 738 mmHg 92%
    07:00 +24°C° 0 mm 2 m/s 738 mmHg 89%
    08:00 +26°C° 0 mm 2 m/s 738 mmHg 85%
    09:00 +27°C° 0 mm 2 m/s 738 mmHg 82%
    10:00 +28°C° 1.5 mm 2 m/s 738 mmHg 80%
    11:00 +29°C° 1.5 mm 2 m/s 738 mmHg 78%
    12:00 +29°C° 1.5 mm 2 m/s 738 mmHg 76%
    13:00 +28°C° 2.6 mm 2 m/s 738 mmHg 77%
    14:00 +27°C° 2.6 mm 1 m/s 738 mmHg 77%
    15:00 +26°C° 2.6 mm 1 m/s 738 mmHg 78%
    16:00 +25°C° 1.3 mm 2 m/s 738 mmHg 83%
    17:00 +24°C° 1.3 mm 2 m/s 738 mmHg 87%
    18:00 +22°C° 1.3 mm 3 m/s 739 mmHg 92%
    19:00 +23°C° 0.4 mm 2 m/s 739 mmHg 91%
    20:00 +21°C° 0.4 mm 2 m/s 739 mmHg 90%
    21:00 +22°C° 0.4 mm 1 m/s 739 mmHg 90%
    22:00 +21°C° 0 mm 1 m/s 740 mmHg 90%
    23:00 +21°C° 0 mm 1 m/s 740 mmHg 91%

    6 Juin, Samedi

    Heure Température Précipitation Vent Pression Humidité
    00:00 +21°C° 0 mm 1 m/s 740 mmHg 92%
    01:00 +19°C° 0 mm 2 m/s 740 mmHg 92%
    02:00 +19°C° 0 mm 2 m/s 741 mmHg 92%
    03:00 +19°C° 0 mm 2 m/s 741 mmHg 92%
    04:00 +18°C° 0 mm 3 m/s 741 mmHg 90%
    05:00 +18°C° 0 mm 3 m/s 741 mmHg 88%
    06:00 +17°C° 0 mm 3 m/s 742 mmHg 86%
    07:00 +19°C° 0 mm 3 m/s 742 mmHg 81%
    08:00 +20°C° 0 mm 3 m/s 742 mmHg 76%
    09:00 +22°C° 0 mm 3 m/s 742 mmHg 71%
    10:00 +24°C° 0 mm 3 m/s 742 mmHg 67%
    11:00 +25°C° 0 mm 3 m/s 742 mmHg 64%
    12:00 +26°C° 0 mm 3 m/s 742 mmHg 60%
    13:00 +26°C° 0 mm 3 m/s 741 mmHg 60%
    14:00 +26°C° 0 mm 3 m/s 741 mmHg 60%
    15:00 +27°C° 0 mm 3 m/s 741 mmHg 59%
    16:00 +26°C° 0 mm 3 m/s 741 mmHg 65%
    17:00 +25°C° 0 mm 2 m/s 741 mmHg 70%
    18:00 +24°C° 0 mm 2 m/s 741 mmHg 75%
    19:00 +22°C° 0 mm 3 m/s 740 mmHg 77%
    20:00 +21°C° 0 mm 3 m/s 740 mmHg 79%
    21:00 +19°C° 0 mm 4 m/s 740 mmHg 81%
    22:00 +19°C° 0 mm 3 m/s 740 mmHg 83%
    23:00 +18°C° 0 mm 3 m/s 740 mmHg 85%

    7 Juin, Dimanche

    Heure Température Précipitation Vent Pression Humidité
    00:00 +18°C° 0 mm 3 m/s 741 mmHg 87%
    01:00 +17°C° 0 mm 4 m/s 741 mmHg 87%
    02:00 +17°C° 0 mm 4 m/s 741 mmHg 87%
    03:00 +17°C° 0 mm 4 m/s 741 mmHg 87%
    04:00 +15°C° 0.1 mm 4 m/s 741 mmHg 86%
    05:00 +15°C° 0.1 mm 4 m/s 741 mmHg 85%
    06:00 +15°C° 0.1 mm 4 m/s 741 mmHg 84%
    07:00 +17°C° 0.2 mm 4 m/s 741 mmHg 81%
    08:00 +19°C° 0.2 mm 5 m/s 741 mmHg 79%
    09:00 +20°C° 0.2 mm 5 m/s 741 mmHg 77%
    10:00 +22°C° 0.2 mm 5 m/s 741 mmHg 75%
    11:00 +23°C° 0.2 mm 6 m/s 740 mmHg 73%
    12:00 +26°C° 0.2 mm 7 m/s 740 mmHg 71%
    13:00 +27°C° 0 mm 6 m/s 740 mmHg 71%
    14:00 +27°C° 0 mm 6 m/s 739 mmHg 71%
    15:00 +28°C° 0 mm 5 m/s 739 mmHg 71%
    16:00 +27°C° 0 mm 5 m/s 739 mmHg 74%
    17:00 +27°C° 0 mm 5 m/s 739 mmHg 78%
    18:00 +26°C° 0 mm 4 m/s 738 mmHg 81%
    19:00 +25°C° 0 mm 4 m/s 739 mmHg 82%
    20:00 +23°C° 0 mm 4 m/s 739 mmHg 83%
    21:00 +21°C° 0 mm 4 m/s 739 mmHg 84%
    22:00 +21°C° 0 mm 4 m/s 739 mmHg 84%
    23:00 +20°C° 0 mm 4 m/s 739 mmHg 83%
    Voir plus